When you browse on this site, cookies collect data to enhance your experience and personalize the content and advertising you see.
Visit our Privacy Policy to learn more. By continuing to use the site, you agree to this use of cookies and data.
  • en France
  • Liste des pays
  • À 7 jours
  • Température de l'eau
  • Carte satellitaire
  • Carte météo
  • Widgets météo
  • user-avatar
    Se connecter

    Météo par heure à Razgrad

    Ce jour, 23 Mars, Samedi

    Heure Température Précipitation Vent Pression Humidité
    00:00 +9°C° 0 mm 1 m/s 748 mmHg 64%
    01:00 +9°C° 0 mm 1 m/s 748 mmHg 65%
    02:00 +9°C° 0 mm 1 m/s 748 mmHg 65%
    03:00 +8°C° 0 mm 1 m/s 748 mmHg 67%
    04:00 +8°C° 0 mm 1 m/s 748 mmHg 69%
    05:00 +7°C° 0 mm 0 m/s 748 mmHg 71%
    06:00 +8°C° 0 mm 1 m/s 748 mmHg 70%
    07:00 +9°C° 0 mm 1 m/s 748 mmHg 69%
    08:00 +11°C° 0 mm 1 m/s 748 mmHg 65%
    09:00 +12°C° 0 mm 1 m/s 747 mmHg 62%
    10:00 +13°C° 0 mm 2 m/s 747 mmHg 58%
    11:00 +12°C° 0 mm 3 m/s 747 mmHg 55%
    12:00 +13°C° 0 mm 3 m/s 747 mmHg 54%
    13:00 +13°C° 0 mm 3 m/s 747 mmHg 53%
    14:00 +13°C° 0 mm 3 m/s 746 mmHg 53%
    15:00 +13°C° 0 mm 3 m/s 746 mmHg 53%
    16:00 +12°C° 0 mm 3 m/s 746 mmHg 53%
    17:00 +12°C° 0 mm 4 m/s 746 mmHg 53%
    18:00 +11°C° 0 mm 4 m/s 746 mmHg 50%
    19:00 +10°C° 0 mm 3 m/s 746 mmHg 46%
    20:00 +9°C° 0 mm 3 m/s 747 mmHg 43%
    21:00 +9°C° 0 mm 3 m/s 747 mmHg 41%
    22:00 +9°C° 0 mm 3 m/s 747 mmHg 38%
    23:00 +8°C° 0 mm 2 m/s 748 mmHg 36%

    Demain, 24 Mars, Dimanche

    Heure Température Précipitation Vent Pression Humidité
    00:00 +8°C° 0 mm 2 m/s 748 mmHg 38%
    01:00 +8°C° 0 mm 1 m/s 748 mmHg 40%
    02:00 +7°C° 0 mm 1 m/s 748 mmHg 43%
    03:00 +6°C° 0 mm 1 m/s 747 mmHg 43%
    04:00 +5°C° 0 mm 0 m/s 747 mmHg 44%
    05:00 +4°C° 0 mm 0 m/s 747 mmHg 45%
    06:00 +5°C° 0 mm 0 m/s 747 mmHg 43%
    07:00 +6°C° 0 mm 0 m/s 747 mmHg 42%
    08:00 +7°C° 0 mm 0 m/s 747 mmHg 40%
    09:00 +9°C° 0 mm 1 m/s 747 mmHg 38%
    10:00 +10°C° 0 mm 1 m/s 747 mmHg 35%
    11:00 +12°C° 0 mm 2 m/s 747 mmHg 33%
    12:00 +13°C° 0 mm 2 m/s 747 mmHg 32%
    13:00 +14°C° 0 mm 2 m/s 746 mmHg 31%
    14:00 +13°C° 0 mm 3 m/s 746 mmHg 31%
    15:00 +14°C° 0 mm 2 m/s 745 mmHg 32%
    16:00 +14°C° 0 mm 2 m/s 745 mmHg 33%
    17:00 +14°C° 0 mm 2 m/s 744 mmHg 34%
    18:00 +13°C° 0 mm 2 m/s 744 mmHg 39%
    19:00 +12°C° 0 mm 1 m/s 744 mmHg 43%
    20:00 +10°C° 0 mm 1 m/s 744 mmHg 47%
    21:00 +10°C° 0 mm 1 m/s 744 mmHg 48%
    22:00 +9°C° 0 mm 1 m/s 744 mmHg 49%
    23:00 +9°C° 0 mm 1 m/s 744 mmHg 50%

    Après-demain, 25 Mars, Lundi

    Heure Température Précipitation Vent Pression Humidité
    00:00 +9°C° 0 mm 1 m/s 744 mmHg 50%
    01:00 +8°C° 0 mm 1 m/s 744 mmHg 51%
    02:00 +8°C° 0 mm 1 m/s 743 mmHg 51%
    03:00 +8°C° 0 mm 1 m/s 743 mmHg 52%
    04:00 +8°C° 0 mm 1 m/s 743 mmHg 53%
    05:00 +6°C° 0 mm 2 m/s 742 mmHg 53%
    06:00 +7°C° 0 mm 2 m/s 742 mmHg 52%
    07:00 +8°C° 0 mm 2 m/s 742 mmHg 51%
    08:00 +9°C° 0 mm 2 m/s 741 mmHg 50%
    09:00 +13°C° 0 mm 2 m/s 741 mmHg 44%
    10:00 +15°C° 0 mm 2 m/s 741 mmHg 37%
    11:00 +17°C° 0 mm 3 m/s 741 mmHg 31%
    12:00 +18°C° 0 mm 3 m/s 740 mmHg 29%
    13:00 +19°C° 0 mm 3 m/s 739 mmHg 27%
    14:00 +20°C° 0 mm 3 m/s 739 mmHg 25%
    15:00 +20°C° 0 mm 3 m/s 738 mmHg 27%
    16:00 +19°C° 0 mm 2 m/s 738 mmHg 29%
    17:00 +19°C° 0 mm 2 m/s 737 mmHg 31%
    18:00 +17°C° 0 mm 2 m/s 737 mmHg 36%
    19:00 +15°C° 0 mm 2 m/s 737 mmHg 41%
    20:00 +13°C° 0 mm 1 m/s 737 mmHg 46%
    21:00 +12°C° 0 mm 2 m/s 737 mmHg 49%
    22:00 +12°C° 0 mm 2 m/s 737 mmHg 53%
    23:00 +10°C° 0 mm 2 m/s 737 mmHg 56%

    26 Mars, Mardi

    Heure Température Précipitation Vent Pression Humidité
    00:00 +10°C° 0 mm 2 m/s 737 mmHg 57%
    01:00 +9°C° 0 mm 2 m/s 737 mmHg 57%
    02:00 +9°C° 0 mm 2 m/s 737 mmHg 58%
    03:00 +9°C° 0 mm 2 m/s 737 mmHg 58%
    04:00 +9°C° 0 mm 2 m/s 737 mmHg 59%
    05:00 +8°C° 0 mm 2 m/s 737 mmHg 59%
    06:00 +9°C° 0 mm 2 m/s 737 mmHg 58%
    07:00 +10°C° 0 mm 3 m/s 738 mmHg 57%
    08:00 +11°C° 0 mm 3 m/s 738 mmHg 55%
    09:00 +12°C° 0 mm 5 m/s 739 mmHg 57%
    10:00 +11°C° 0 mm 6 m/s 739 mmHg 59%
    11:00 +12°C° 0 mm 7 m/s 739 mmHg 61%
    12:00 +12°C° 0 mm 7 m/s 739 mmHg 61%
    13:00 +12°C° 0 mm 7 m/s 740 mmHg 61%
    14:00 +12°C° 0 mm 7 m/s 740 mmHg 61%
    15:00 +10°C° 1.3 mm 6 m/s 740 mmHg 68%
    16:00 +9°C° 1.3 mm 5 m/s 741 mmHg 75%
    17:00 +7°C° 1.3 mm 4 m/s 741 mmHg 82%
    18:00 +8°C° 0.1 mm 3 m/s 742 mmHg 80%
    19:00 +7°C° 0.1 mm 3 m/s 743 mmHg 79%
    20:00 +7°C° 0.1 mm 2 m/s 743 mmHg 78%
    21:00 +8°C° 0 mm 1 m/s 744 mmHg 79%
    22:00 +8°C° 0 mm 1 m/s 744 mmHg 79%
    23:00 +7°C° 0 mm 0 m/s 745 mmHg 80%

    27 Mars, Mercredi

    Heure Température Précipitation Vent Pression Humidité
    00:00 +7°C° 0 mm 1 m/s 745 mmHg 80%
    01:00 +7°C° 0 mm 1 m/s 745 mmHg 80%
    02:00 +6°C° 0 mm 2 m/s 745 mmHg 81%
    03:00 +5°C° 0 mm 2 m/s 746 mmHg 78%
    04:00 +5°C° 0 mm 2 m/s 746 mmHg 75%
    05:00 +4°C° 0 mm 2 m/s 746 mmHg 73%
    06:00 +5°C° 0 mm 2 m/s 746 mmHg 69%
    07:00 +5°C° 0 mm 2 m/s 747 mmHg 66%
    08:00 +5°C° 0 mm 2 m/s 747 mmHg 62%
    09:00 +6°C° 0 mm 2 m/s 748 mmHg 57%
    10:00 +7°C° 0 mm 2 m/s 748 mmHg 52%
    11:00 +8°C° 0 mm 2 m/s 748 mmHg 48%
    12:00 +9°C° 0 mm 2 m/s 748 mmHg 47%
    13:00 +9°C° 0 mm 2 m/s 748 mmHg 46%
    14:00 +11°C° 0 mm 1 m/s 748 mmHg 46%
    15:00 +10°C° 0.1 mm 2 m/s 748 mmHg 48%
    16:00 +10°C° 0.1 mm 2 m/s 748 mmHg 50%
    17:00 +9°C° 0.1 mm 2 m/s 748 mmHg 52%
    18:00 +9°C° 0.1 mm 2 m/s 748 mmHg 56%
    19:00 +8°C° 0.1 mm 2 m/s 749 mmHg 60%
    20:00 +8°C° 0.1 mm 2 m/s 749 mmHg 64%
    21:00 +7°C° 0 mm 2 m/s 749 mmHg 66%
    22:00 +6°C° 0 mm 2 m/s 749 mmHg 68%
    23:00 +6°C° 0 mm 2 m/s 750 mmHg 69%

    28 Mars, Jeudi

    Heure Température Précipitation Vent Pression Humidité
    00:00 +5°C° 0 mm 2 m/s 750 mmHg 71%
    01:00 +4°C° 0 mm 2 m/s 750 mmHg 73%
    02:00 +4°C° 0 mm 2 m/s 750 mmHg 75%
    03:00 +3°C° 0 mm 2 m/s 751 mmHg 73%
    04:00 +3°C° 0 mm 2 m/s 751 mmHg 71%
    05:00 +2°C° 0 mm 2 m/s 751 mmHg 69%
    06:00 +2°C° 0 mm 3 m/s 751 mmHg 63%
    07:00 +3°C° 0 mm 3 m/s 752 mmHg 58%
    08:00 +3°C° 0 mm 3 m/s 752 mmHg 52%
    09:00 +4°C° 0 mm 4 m/s 752 mmHg 47%
    10:00 +6°C° 0 mm 4 m/s 752 mmHg 42%
    11:00 +7°C° 0 mm 4 m/s 752 mmHg 36%
    12:00 +7°C° 0 mm 5 m/s 752 mmHg 35%
    13:00 +8°C° 0 mm 5 m/s 752 mmHg 33%
    14:00 +8°C° 0 mm 5 m/s 752 mmHg 32%
    15:00 +8°C° 0 mm 5 m/s 751 mmHg 32%
    16:00 +8°C° 0 mm 4 m/s 751 mmHg 33%
    17:00 +7°C° 0 mm 4 m/s 751 mmHg 33%
    18:00 +7°C° 0 mm 3 m/s 751 mmHg 37%
    19:00 +5°C° 0 mm 3 m/s 752 mmHg 41%
    20:00 +4°C° 0 mm 2 m/s 752 mmHg 45%
    21:00 +5°C° 0 mm 1 m/s 752 mmHg 48%
    22:00 +4°C° 0 mm 1 m/s 752 mmHg 50%
    23:00 +3°C° 0 mm 1 m/s 753 mmHg 53%
    Voir plus